Location: Newark
(54.3386°S, 169.8415°W)
Time: 14:50:54
(UTC+00:00)

Transit 2A Rocket - Pass Details

Date: 31 October 2019
Orbit: 594 x 909 km, 66.7° (Epoch: 21 November)

Event Time Altitude Azimuth Distance (km) Brightness Sun altitude
Rises 08:32:34 0° 225° (SW) 3,531 10.3 -14.5°
Reaches altitude 10° 08:35:08 10° 220° (SW) 2,609 9.2 -14.7°
Maximum altitude 08:41:09 53° 143° (SE) 1,123 5.9 -15.3°
Enters shadow 08:45:50 17° 70° (ENE) 2,154 6.8 -15.7°
Drops below altitude 10° 08:47:06 10° 66° (ENE) 2,590 - -15.8°
Sets 08:49:39 0° 61° (ENE) 3,504 - -16.0°
